TimeCDT,TemperatureF,Dew PointF,Humidity,Sea Level PressureIn,VisibilityMPH,Wind Direction,Wind SpeedMPH,Gust SpeedMPH,PrecipitationIn,Events,Conditions,WindDirDegrees,DateUTC
12:53 AM,41.0,32.0,70,30.05,10.0,NNE,11.5,-,N/A,,Clear,30,2013-10-28 05:53:00
1:53 AM,41.0,32.0,70,30.07,10.0,NE,17.3,-,N/A,,Clear,40,2013-10-28 06:53:00
2:53 AM,39.0,32.0,76,30.11,10.0,NE,13.8,-,N/A,,Clear,40,2013-10-28 07:53:00
3:53 AM,37.0,30.9,79,30.14,10.0,NE,13.8,-,N/A,,Clear,40,2013-10-28 08:53:00
4:53 AM,36.0,30.9,82,30.17,10.0,NE,12.7,-,N/A,,Clear,40,2013-10-28 09:53:00
5:53 AM,35.1,30.0,82,30.21,10.0,NE,11.5,-,N/A,,Clear,50,2013-10-28 10:53:00
6:53 AM,35.1,30.9,85,30.25,10.0,NE,12.7,-,N/A,,Clear,50,2013-10-28 11:53:00
7:53 AM,34.0,30.0,85,30.28,10.0,NE,12.7,-,N/A,,Clear,40,2013-10-28 12:53:00
8:53 AM,36.0,30.9,82,30.32,10.0,NE,16.1,-,N/A,,Clear,50,2013-10-28 13:53:00
9:53 AM,37.0,30.9,79,30.34,10.0,ENE,18.4,24.2,N/A,,Scattered Clouds,60,2013-10-28 14:53:00
10:02 AM,37.4,30.2,75,30.32,10.0,ENE,18.4,-,N/A,,Mostly Cloudy,60,2013-10-28 15:02:00
10:53 AM,39.9,30.9,70,30.35,10.0,ENE,20.7,27.6,N/A,,Overcast,70,2013-10-28 15:53:00
11:53 AM,41.0,30.9,67,30.35,10.0,East,15.0,25.3,N/A,,Overcast,80,2013-10-28 16:53:00
12:53 PM,42.1,30.0,62,30.35,10.0,ENE,16.1,-,N/A,,Overcast,70,2013-10-28 17:53:00
1:53 PM,44.1,30.9,60,30.32,10.0,ENE,15.0,-,N/A,,Overcast,70,2013-10-28 18:53:00
2:30 PM,44.6,30.2,57,30.30,10.0,ENE,13.8,23.0,N/A,,Scattered Clouds,70,2013-10-28 19:30:00
2:53 PM,45.0,30.9,58,30.32,10.0,ENE,16.1,-,N/A,,Partly Cloudy,70,2013-10-28 19:53:00
3:53 PM,44.1,30.9,60,30.34,10.0,East,12.7,-,N/A,,Mostly Cloudy,90,2013-10-28 20:53:00
4:53 PM,44.1,30.9,60,30.33,10.0,ENE,12.7,-,N/A,,Clear,70,2013-10-28 21:53:00
5:53 PM,39.9,30.0,68,30.34,10.0,ENE,11.5,-,N/A,,Clear,60,2013-10-28 22:53:00
6:53 PM,37.9,30.0,73,30.36,9.0,ENE,8.1,-,N/A,,Scattered Clouds,60,2013-10-28 23:53:00
7:53 PM,37.0,30.0,76,30.37,10.0,ENE,9.2,-,N/A,,Partly Cloudy,60,2013-10-29 00:53:00
8:53 PM,37.9,28.9,70,30.37,10.0,ENE,10.4,-,N/A,,Partly Cloudy,70,2013-10-29 01:53:00
9:53 PM,37.0,28.9,73,30.36,10.0,ENE,9.2,-,N/A,,Partly Cloudy,70,2013-10-29 02:53:00
10:53 PM,37.0,28.9,73,30.38,10.0,East,8.1,-,N/A,,Partly Cloudy,80,2013-10-29 03:53:00
11:53 PM,37.0,28.9,73,30.36,10.0,East,9.2,-,N/A,,Clear,80,2013-10-29 04:53:00